TimeCDT,TemperatureF,Dew PointF,Humidity,Sea Level PressureIn,VisibilityMPH,Wind Direction,Wind SpeedMPH,Gust SpeedMPH,PrecipitationIn,Events,Conditions,WindDirDegrees,DateUTC
12:15 AM,10.4,6.8,85,30.11,10.0,SE,12.7,-,N/A,,Overcast,130,2013-03-17 05:15:00
12:35 AM,10.4,6.8,85,30.12,10.0,SE,12.7,-,N/A,,Overcast,130,2013-03-17 05:35:00
12:55 AM,10.4,6.8,85,30.09,9.0,ESE,12.7,-,N/A,Snow,Light Snow,120,2013-03-17 05:55:00
1:15 AM,10.4,8.6,92,30.09,9.0,ESE,11.5,-,N/A,Snow,Light Snow,120,2013-03-17 06:15:00
1:35 AM,10.4,8.6,92,30.09,3.0,SE,8.1,-,0.02,Snow,Light Snow,130,2013-03-17 06:35:00
1:55 AM,10.4,8.6,92,30.07,3.0,SE,12.7,-,0.05,Snow,Light Snow,130,2013-03-17 06:55:00
2:15 AM,10.4,8.6,92,30.05,3.0,ESE,12.7,-,0.01,Snow,Light Snow,120,2013-03-17 07:15:00
2:35 AM,10.4,8.6,92,30.03,4.0,ESE,12.7,-,0.02,Snow,Light Snow,120,2013-03-17 07:35:00
2:55 AM,10.4,10.4,100,30.03,4.0,SE,13.8,-,0.05,Snow,Light Snow,130,2013-03-17 07:55:00
3:15 AM,10.4,10.4,100,30.02,7.0,SE,13.8,20.7,N/A,Snow,Light Snow,130,2013-03-17 08:15:00
3:35 AM,10.4,8.6,92,30.01,10.0,SE,17.3,-,N/A,,Overcast,140,2013-03-17 08:35:00
3:55 AM,10.4,8.6,92,30.00,10.0,SE,15.0,-,N/A,,Overcast,140,2013-03-17 08:55:00
4:15 AM,10.4,8.6,92,29.99,10.0,SE,15.0,21.9,N/A,,Overcast,140,2013-03-17 09:15:00
4:35 AM,10.4,8.6,92,29.98,10.0,SE,18.4,21.9,N/A,Snow,Light Snow,140,2013-03-17 09:35:00
4:55 AM,10.4,8.6,92,29.96,10.0,SE,19.6,24.2,N/A,,Overcast,130,2013-03-17 09:55:00
5:15 AM,10.4,8.6,92,29.95,10.0,SE,19.6,25.3,N/A,,Overcast,140,2013-03-17 10:15:00
5:35 AM,10.4,8.6,92,29.94,10.0,SSE,17.3,24.2,N/A,,Overcast,150,2013-03-17 10:35:00
5:55 AM,10.4,8.6,92,29.94,10.0,SE,17.3,23.0,N/A,,Overcast,140,2013-03-17 10:55:00
6:15 AM,10.4,8.6,92,29.93,10.0,SE,17.3,-,N/A,,Overcast,130,2013-03-17 11:15:00
6:35 AM,10.4,6.8,85,29.92,10.0,SE,18.4,21.9,N/A,,Overcast,130,2013-03-17 11:35:00
6:55 AM,10.4,8.6,92,29.89,10.0,SE,21.9,25.3,N/A,,Overcast,130,2013-03-17 11:55:00
7:15 AM,10.4,6.8,85,29.88,10.0,SE,18.4,28.8,N/A,,Overcast,130,2013-03-17 12:15:00
7:35 AM,10.4,8.6,92,29.87,10.0,SE,18.4,23.0,N/A,,Overcast,130,2013-03-17 12:35:00
7:55 AM,10.4,8.6,92,29.86,10.0,SE,18.4,-,N/A,,Overcast,130,2013-03-17 12:55:00
8:15 AM,10.4,8.6,92,29.85,10.0,SE,21.9,-,N/A,,Overcast,130,2013-03-17 13:15:00
8:35 AM,10.4,8.6,92,29.84,10.0,SE,20.7,-,N/A,,Overcast,140,2013-03-17 13:35:00
8:55 AM,10.4,8.6,92,29.83,10.0,SE,19.6,24.2,N/A,,Overcast,140,2013-03-17 13:55:00
9:15 AM,10.4,8.6,92,29.81,10.0,SE,18.4,25.3,N/A,,Mostly Cloudy,140,2013-03-17 14:15:00
9:35 AM,10.4,8.6,92,29.80,10.0,SE,20.7,25.3,N/A,,Mostly Cloudy,140,2013-03-17 14:35:00
10:15 AM,14.0,10.4,86,29.77,9.0,SE,19.6,25.3,N/A,,Overcast,140,2013-03-17 15:15:00
10:35 AM,14.0,10.4,86,29.75,8.0,SE,17.3,24.2,N/A,,Mostly Cloudy,140,2013-03-17 15:35:00
10:55 AM,14.0,12.2,93,29.74,8.0,SSE,20.7,24.2,N/A,Snow,Light Snow,150,2013-03-17 15:55:00
11:15 AM,15.8,12.2,86,29.73,10.0,SSE,19.6,29.9,N/A,,Mostly Cloudy,150,2013-03-17 16:15:00
11:35 AM,15.8,14.0,93,29.71,10.0,SE,21.9,25.3,N/A,,Mostly Cloudy,140,2013-03-17 16:35:00
11:55 AM,15.8,14.0,93,29.70,10.0,SE,20.7,24.2,N/A,,Mostly Cloudy,140,2013-03-17 16:55:00
12:15 PM,15.8,14.0,93,29.69,10.0,SE,19.6,24.2,N/A,,Mostly Cloudy,140,2013-03-17 17:15:00
12:35 PM,17.6,15.8,93,29.68,9.0,SE,20.7,29.9,N/A,,Mostly Cloudy,140,2013-03-17 17:35:00
12:55 PM,17.6,15.8,93,29.66,10.0,SE,18.4,28.8,N/A,,Mostly Cloudy,140,2013-03-17 17:55:00
1:15 PM,17.6,15.8,93,29.64,10.0,SE,21.9,28.8,N/A,,Scattered Clouds,140,2013-03-17 18:15:00
1:35 PM,17.6,15.8,93,29.62,8.0,SE,18.4,25.3,N/A,,Scattered Clouds,130,2013-03-17 18:35:00
1:55 PM,19.4,17.6,93,29.61,10.0,SE,18.4,27.6,N/A,,Mostly Cloudy,140,2013-03-17 18:55:00
2:15 PM,19.4,17.6,93,29.60,9.0,SSE,23.0,28.8,N/A,,Overcast,150,2013-03-17 19:15:00
2:35 PM,19.4,17.6,93,29.59,10.0,SE,23.0,29.9,N/A,,Overcast,140,2013-03-17 19:35:00
2:55 PM,19.4,17.6,93,29.58,9.0,SSE,23.0,27.6,N/A,Snow,Light Snow,150,2013-03-17 19:55:00
3:15 PM,19.4,17.6,93,29.56,10.0,SE,21.9,26.5,N/A,,Overcast,140,2013-03-17 20:15:00
3:35 PM,19.4,19.4,100,29.54,10.0,SE,17.3,27.6,N/A,,Overcast,130,2013-03-17 20:35:00
3:55 PM,21.2,19.4,93,29.53,0.8,SE,19.6,26.5,0.03,Snow,Light Snow,130,2013-03-17 20:55:00
4:15 PM,23.0,23.0,100,29.51,9.0,SE,17.3,23.0,N/A,,Overcast,130,2013-03-17 21:15:00
4:35 PM,23.0,23.0,100,29.50,10.0,SE,17.3,-,N/A,,Overcast,130,2013-03-17 21:35:00
4:55 PM,23.0,23.0,100,29.49,10.0,SE,17.3,24.2,N/A,,Overcast,130,2013-03-17 21:55:00
5:15 PM,24.8,23.0,93,29.49,10.0,SE,18.4,29.9,N/A,,Overcast,140,2013-03-17 22:15:00
5:35 PM,24.8,23.0,93,29.48,3.0,SE,19.6,24.2,N/A,Snow,Light Snow,130,2013-03-17 22:35:00
5:55 PM,24.8,23.0,93,29.48,1.0,SE,17.3,23.0,0.03,Snow,Light Snow,130,2013-03-17 22:55:00
6:15 PM,24.8,24.8,100,29.47,0.8,ESE,16.1,24.2,0.02,Snow,Light Snow,120,2013-03-17 23:15:00
6:35 PM,23.0,23.0,100,29.47,3.0,ESE,15.0,20.7,0.03,Snow,Light Snow,120,2013-03-17 23:35:00
6:55 PM,24.8,24.8,100,29.47,10.0,ESE,11.5,-,0.04,Rain,Freezing Rain,120,2013-03-17 23:55:00
7:15 PM,24.8,24.8,100,29.47,3.0,ESE,11.5,-,N/A,Rain,Freezing Rain,120,2013-03-18 00:15:00
7:35 PM,24.8,24.8,100,29.46,2.0,ESE,11.5,-,0.01,Snow,Light Snow,110,2013-03-18 00:35:00
7:55 PM,24.8,24.8,100,29.46,3.0,ESE,10.4,-,0.02,Rain,Freezing Rain,120,2013-03-18 00:55:00
8:15 PM,24.8,24.8,100,29.47,4.0,East,4.6,-,N/A,Snow,Light Snow,90,2013-03-18 01:15:00
8:35 PM,24.8,24.8,100,29.48,3.0,NE,3.5,-,0.01,Snow,Light Snow,40,2013-03-18 01:35:00
8:55 PM,24.8,24.8,100,29.48,5.0,East,3.5,-,0.03,Snow,Light Snow,100,2013-03-18 01:55:00
9:15 PM,24.8,24.8,100,29.48,4.0,Calm,Calm,-,0.01,Snow,Light Snow,0,2013-03-18 02:15:00
9:35 PM,24.8,24.8,100,29.48,7.0,Calm,Calm,-,0.02,Rain,Freezing Rain,0,2013-03-18 02:35:00
9:55 PM,24.8,24.8,100,29.49,7.0,West,3.5,-,0.02,Rain,Freezing Rain,280,2013-03-18 02:55:00
10:15 PM,24.8,24.8,100,29.49,7.0,West,10.4,-,N/A,,Mostly Cloudy,280,2013-03-18 03:15:00
10:35 PM,26.6,26.6,100,29.50,9.0,WNW,19.6,27.6,N/A,,Mostly Cloudy,300,2013-03-18 03:35:00
10:55 PM,24.8,24.8,100,29.51,8.0,WNW,19.6,29.9,N/A,Snow,Light Snow,300,2013-03-18 03:55:00
11:15 PM,24.8,24.8,100,29.51,10.0,WNW,26.5,34.5,N/A,Rain,Freezing Rain,300,2013-03-18 04:15:00
11:35 PM,21.2,19.4,93,29.53,9.0,WNW,32.2,41.4,N/A,Snow,Light Snow,300,2013-03-18 04:35:00
11:55 PM,17.6,15.8,93,29.55,10.0,WNW,29.9,44.9,N/A,,Overcast,300,2013-03-18 04:55:00